TIME,DELAY(SENSOR),PRES,T(CTD),SAL,OXYGEN,RAWTEMP,T(OPTODE),TCPHASE,FLUOR,BETA(BETA700),BETA(BETA412),BETA(BETA440),CDOM,C(CSC),ED(ED412.40),ED(ED444.00),ED(ED489.70),ED(ED554.30),LU(LU411.80),LU(LU443.40),LU(LU489.60),LU(LU554.10),COMP,TILTX,TILTX(TILTY),CHECK
1350681485,5809,497.3900146484375000,6.9704999923706055,34.1178016662597660,91.0622863769531200,588.9963989257812000,6.9391517639160160,47.4864311218261700,51,106,86,79,79,15176,2147749494,2147423259,2148005531,2147873078,2147630893,2147080758,2148247945,2147200064,2491,5,13,10674
1350681646,5809,485.3299865722656000,7.2238001823425290,34.1166992187500000,99.0966567993164000,579.1464843750000000,7.2558751106262210,46.4644889831543000,50,105,87,80,78,15177,2147744429,2147421357,2148003940,2147871140,2147628937,2147082761,2148242011,2147197814,1777,5,12,46012
1350681773,5810,473.7399902343750000,7.4011001586914060,34.1197013854980500,104.8190002441406200,575.0808715820312000,7.3863511085510250,45.8014984130859400,50,105,89,81,77,15176,2147747602,2147422171,2148003849,2147873773,2147626816,2147083821,2148240749,2147197248,2436,5,13,10691
1350681890,5808,462.9400024414062500,7.6287999153137210,34.1184997558593750,109.0410995483398400,567.6126708984375000,7.6256389617919920,45.2500000000000000,50,104,88,80,77,15176,2147746157,2147422701,2148006738,2147872009,2147627264,2147089408,2148241782,2147199021,2095,4,13,2925
1350682005,5808,451.9500122070312500,7.8344001770019530,34.1139984130859400,117.9509963989257800,561.5656127929688000,7.8190398216247560,44.2726402282714840,51,104,87,80,77,15180,2147743067,2147421568,2148008027,2147871899,2147625325,2147085668,2148239131,2147198985,1400,4,13,45446
1350682120,5805,440.6300048828125000,7.9036002159118650,34.1156005859375000,122.0407028198242200,559.4920043945312000,7.8852839469909670,43.8475303649902340,51,107,86,80,77,15177,2147744758,2147425216,2148005906,2147871305,2147623899,2147088512,2148235867,2147198464,1455,4,13,38257
1350682225,5809,430.2799987792969000,8.0832004547119140,34.1122016906738300,126.5311965942382800,553.8438720703125000,8.0655422210693360,43.3355598449707000,50,105,91,81,76,15179,2147743734,2147424292,2148004736,2147871981,2147623424,2147090550,2148241874,2147202285,701,4,12,8158
1350682340,5809,418.8699951171875000,8.2407999038696290,34.1076011657714840,133.7980041503906200,548.8547973632812000,8.2245473861694340,42.5941390991210940,50,105,87,80,77,15178,2147739995,2147422052,2148002395,2147870482,2147622884,2147086454,2148236699,2147198848,3108,5,13,1249
1350682443,5808,408.1600036621094000,8.3884000778198240,34.1035003662109400,140.7377929687500000,543.8950805664062000,8.3824100494384770,41.9046516418457000,50,106,90,80,75,15177,2147742372,2147423698,2148003794,2147873664,2147621376,2147087414,2148238016,2147202358,216,4,13,46111
1350682561,5810,397.1000061035156000,8.5172004699707030,34.1055984497070300,147.1730957031250000,540.1287231445312000,8.5021591186523440,41.3011398315429700,50,105,92,80,75,15177,2147742400,2147422628,2148001353,2147872356,2147622326,2147088228,2148233892,2147200612,24,4,13,19357
1350682700,5808,386.4800109863281000,8.6967000961303710,34.1012001037597660,152.4519958496093800,534.3939208984375000,8.6842746734619140,40.7718200683593750,50,103,89,80,74,15177,2147741312,2147425654,2148003364,2147874084,2147621540,2147094701,2148235876,2147201014,2611,4,14,10226
1350682868,5807,373.4500122070312500,9.0728998184204100,34.1052017211914060,162.1244964599609400,522.7567749023438000,9.0530376434326170,39.8155593872070300,50,107,90,80,74,15178,2147738221,2147422784,2148000704,2147872548,2147621065,2147091986,2148230500,2147201142,2417,4,13,37
1350682995,5810,362.2799987792969000,9.2056999206542970,34.1133003234863300,168.6107025146484400,515.8643188476562000,9.2709684371948240,39.2117805480957000,50,105,91,81,74,15180,2147740461,2147424438,2148001508,2147871524,2147616932,2147095030,2148233371,2147200960,2580,4,13,11037
1350683136,5807,351.5799865722656000,9.7569999694824220,34.1166992187500000,181.1367950439453000,500.9353942871094000,9.7418041229248050,38.0671195983886700,50,106,88,80,73,15180,2147738752,2147423744,2148004150,2147872210,2147613028,2147098541,2148229083,2147201901,2687,4,13,21625
1350683299,5812,341.0400085449219000,10.0087003707885740,34.1245994567871100,187.7785034179687500,492.8331909179687500,9.9966793060302730,37.4828910827636700,49,106,87,81,72,15176,2147736009,2147422445,2148002624,2147871798,2147615021,2147101558,2148231698,2147200585,2616,4,13,32821
1350683483,5808,329.7799987792969000,10.6281003952026370,34.1509017944335940,201.6712036132812500,472.9179077148437500,10.6212997436523440,36.2672996520996100,49,105,88,80,71,15179,2147733888,2147421897,2148004864,2147871680,2147610880,2147105316,2148224630,2147198637,1886,4,13,50124
1350683622,5810,318.6199951171875000,11.0320997238159180,34.1652984619140600,206.8744049072265600,460.3183898925781000,11.0151796340942380,35.7468681335449200,49,105,88,80,70,15178,2147733019,2147420425,2148005065,2147872210,2147608210,2147113161,2148225124,2147204598,2279,4,13,13741
1350683757,5812,307.2699890136719000,11.2236995697021480,34.1730995178222660,208.5243988037109400,453.4158020019531000,11.2305603027343750,35.5362396240234400,48,104,91,81,70,15179,2147731437,2147421622,2148006884,2147870070,2147610852,2147109787,2148225252,2147205284,1279,4,13,52074
1350683873,5809,295.5799865722656000,11.7657003402709960,34.1996994018554700,211.8802947998047000,437.0159912109375000,11.7412004470825200,35.0766792297363300,49,104,88,80,68,15178,2147731026,2147423561,2148014848,2147872219,2147605531,2147117348,2148223926,2147206756,2321,4,13,42412
1350683976,5809,285.3200073242187500,12.0129995346069340,34.2155990600585940,212.8515014648437500,427.3819885253906000,12.0404901504516600,34.8676490783691400,49,103,83,80,70,15179,2147729508,2147426185,2148021961,2147873993,2147602916,2147118546,2148230665,2147203977,3342,4,13,3457
1350684093,5807,274.1000061035156000,12.8104000091552730,34.2635002136230500,214.9734954833984400,402.6614990234375000,12.8063697814941400,34.3591918945312500,48,102,89,80,70,15176,2147725942,2147428864,2148034084,2147868644,2147600338,2147120932,2148227657,2147204278,3525,3,13,22160
1350684220,5809,263.2999877929687500,13.3542003631591800,34.3018989562988300,215.5220031738281200,385.6784057617187500,13.3309202194213870,34.0663681030273440,48,104,88,79,68,15173,2147724772,2147433773,2148044379,2147875181,2147598683,2147132242,2148231570,2147209920,3208,4,13,18402
1350684349,5809,252.2700042724609400,13.9945001602172850,34.3504981994628900,214.4143066406250000,364.6098937988281000,13.9800701141357420,33.8071708679199200,49,104,90,79,68,15176,2147724242,2147435035,2148051072,2147872265,2147594752,2147136539,2148233563,2147210889,2464,4,14,46190
1350684476,5808,240.3800048828125000,14.5570001602172850,34.4229011535644500,216.1945953369140600,345.8709106445312500,14.5561304092407230,33.4273300170898440,49,104,87,80,67,15170,2147721060,2147438948,2148057353,2147872585,2147594249,2147144722,2148232146,2147209298,443,4,13,22175
1350684591,5810,228.7599945068359400,15.0934000015258790,34.4804000854492200,216.4248962402343800,328.0108947753906000,15.1042003631591800,33.1508293151855500,48,103,88,81,68,15171,2147722020,2147453851,2148095981,2147871232,2147591597,2147154889,2148246564,2147206747,2857,4,14,49798
1350684696,5808,218.7799987792968800,16.0039005279541000,34.5792007446289060,215.2677001953125000,297.3362121582031000,16.0436992645263670,32.7673416137695300,48,105,89,80,67,15169,2147723236,2147485357,2148187894,2147874267,2147586889,2147178112,2148287268,2147215506,2628,4,14,65144
1350684823,5807,208.5500030517578000,16.6648998260498050,34.6506004333496100,212.8748016357422000,276.2546081542969000,16.6883907318115230,32.5965194702148440,48,106,86,83,67,15165,2147727844,2147519286,2148264896,2147876553,2147585517,2147201984,2148321920,2147221056,2056,4,14,30231
1350684994,5810,198.2700042724609400,17.5095005035400400,34.7420005798339840,209.7463989257812500,250.0211944580078000,17.4899005889892580,32.3980407714843750,50,107,89,82,66,15160,2147728841,2147572278,2148389604,2147873938,2147584411,2147238811,2148377746,2147222601,1163,3,14,49741
1350685073,5809,194.5800018310547000,17.7989997863769530,34.7747001647949200,208.1593017578125000,238.8273925781250000,17.8317699432373050,32.3296699523925800,51,105,87,81,67,15159,2147736850,2147592868,2148437540,2147873856,2147586230,2147253915,2148398683,2147226578,1255,3,15,44258
1350685164,5806,190.8500061035156200,18.2394008636474600,34.8259010314941400,208.3303985595703000,226.1293029785156200,18.2195396423339840,32.1425018310546900,53,109,88,81,65,15152,2147741010,2147600914,2148439552,2147873673,2147586587,2147257060,2148397787,2147230372,1117,3,14,51061
1350685269,5805,187.1000061035156200,18.7709007263183600,34.8926010131835940,208.5720977783203000,209.3921051025390600,18.7306900024414060,31.8972606658935550,56,108,88,82,64,15154,2147742592,2147610185,2148446034,2147875830,2147584457,2147265526,2148400100,2147226459,233,3,14,54968
1350685408,5807,182.9900054931640600,19.1844005584716800,34.9472007751464840,209.2501068115234400,195.4143981933593800,19.1576690673828120,31.6674098968505860,59,110,88,81,64,15150,2147745508,2147604480,2148411008,2147872749,2147582482,2147272795,2148375936,2147228406,1443,3,15,39984
1350685535,5807,178.7899932861328000,19.3374004364013670,34.9658012390136700,210.2052001953125000,189.8283996582031200,19.3283596038818360,31.5387001037597660,60,109,90,81,65,15147,2147757275,2147649490,2148501750,2147874605,2147583881,2147297846,2148413120,2147233280,1307,2,15,30673
1350685646,5806,174.4499969482422000,19.6868000030517580,35.0103988647460940,211.2028961181640600,177.2357940673828000,19.7132492065429700,31.3130302429199220,61,110,89,82,64,15147,2147777554,2147711817,2148622418,2147876470,2147591890,2147334564,2148472722,2147233929,461,2,14,20152
1350685737,5808,170.6100006103515600,19.9766998291015620,35.0474014282226560,213.1293945312500000,168.9813995361328000,19.9656600952148440,31.0978908538818360,63,111,90,81,64,15144,2147792923,2147743890,2148674038,2147873636,2147601270,2147349705,2148489892,2147241307,2540,3,15,63155
1350685828,5810,166.6399993896484400,20.2019004821777340,35.0727996826171900,215.3489074707031200,161.7926940917968800,20.1855697631835940,30.8834209442138670,66,110,86,81,64,15139,2147807076,2147772873,2148713700,2147872484,2147604169,2147368128,2148511634,2147241581,2072,3,15,46588
1350685921,5807,162.4600067138672000,20.2936992645263670,35.0862998962402340,217.1860961914062500,157.7012939453125000,20.3107700347900400,30.7323303222656250,67,114,87,81,63,15138,2147840137,2147849408,2148851894,2147874989,2147615826,2147419739,2148569929,2147242413,1541,2,15,15473
1350686000,5807,158.7799987792968800,20.5669994354248050,35.1138000488281250,218.2693939208984400,150.0323028564453000,20.5455207824707030,30.5743007659912100,69,112,89,81,63,15133,2147870336,2147914386,2148969910,2147872832,2147630134,2147460169,2148630061,2147247140,1272,3,15,58244
1350686091,5809,154.7599945068359400,20.6399993896484380,35.1161994934082000,218.8954925537109400,147.2024993896484400,20.6321792602539060,30.5045204162597660,71,113,89,82,62,15129,2147926253,2148058258,2149248256,2147876315,2147655085,2147537883,2148755821,2147258989,1020,3,15,26502
1350686194,5808,150.6499938964843800,20.8145999908447270,35.1358985900878900,218.9105987548828000,141.5755004882812500,20.8045406341552730,30.4293994903564450,74,109,89,81,63,15127,2147962221,2148130486,2149363785,2147877741,2147666294,2147575579,2148807524,2147260662,3300,3,15,36943
1350686299,5806,146.8200073242187500,20.9057998657226560,35.1501998901367200,220.4351043701172000,138.6679992675781200,20.8936290740966800,30.3128700256347660,76,111,91,82,62,15127,2148014738,2148226057,2149529910,2147880484,2147689197,2147632932,2148884077,2147264896,3476,2,16,41168
1350686414,5808,143.1300048828125000,21.0058994293212900,35.1399002075195300,218.9257049560547000,134.8083038330078000,21.0119209289550780,30.3393802642822270,81,111,90,81,62,15118,2148129225,2148461293,2149949650,2147885110,2147736411,2147758253,2149075739,2147282806,3027,2,16,47580
1350686588,5808,139.0299987792968800,21.4064998626709000,35.1819992065429700,219.2976989746093800,122.4726028442382800,21.3902397155761720,30.1584300994873050,86,116,90,82,62,15119,2148388754,2148942811,2150784548,2147893028,2147833033,2148009042,2149439744,2147313206,3109,2,15,45389
1350686739,5810,135.4100036621093800,21.9358997344970700,35.2527008056640600,225.7781066894531200,105.4579010009765600,21.9127597808837900,29.6126098632812500,93,115,87,80,62,15105,2148604717,2149270253,2151256393,2147896649,2147922185,2148169481,2149627035,2147326646,1817,2,15,28281
1350686901,5808,130.8200073242187500,22.1054000854492200,35.2621994018554700,231.8034973144531200,100.0860977172851600,22.0779094696044920,29.2524604797363280,92,116,92,82,61,15097,2149002413,2149823744,2152075163,2147909796,2148085522,2148440100,2149964452,2147352813,462,3,15,21488
1350686992,5808,126.1100006103515600,22.2488994598388670,35.2653999328613300,234.6824035644531200,94.8325195312500000,22.2395191192626950,29.0497493743896500,98,114,88,83,62,15096,2149350601,2150289252,2152701147,2147916928,2148229220,2148660260,2150211081,2147380251,1060,3,16,2206
1350687059,5809,122.3799972534179700,22.3726005554199220,35.2602996826171900,235.5632934570312500,91.0764236450195300,22.3551197052001950,28.9609508514404300,102,116,92,81,62,15091,2149586907,2150544009,2152981659,2147925184,2148320694,2148760923,2150308041,2147388589,1160,3,16,47310
1350687138,5807,118.4199981689453100,22.5107994079589840,35.2545013427734400,236.2525939941406200,86.6420288085937500,22.4916706085205080,28.8727703094482420,104,115,90,83,62,15082,2149971465,2151008795,2153563547,2147934500,2148470445,2148970075,2150531227,2147410267,1136,2,15,53973
1350687219,5807,115.0599975585937500,22.7101001739501950,35.2606010437011700,236.6244964599609400,80.3641967773437500,22.6851005554199220,28.7761898040771500,108,114,87,84,62,15078,2150530212,2151720274,2154547337,2147955803,2148688210,2149292461,2150929197,2147447433,171,3,15,19921
1350687358,5809,111.4199981689453100,22.9706993103027340,35.2677993774414060,237.5410003662109400,71.8647003173828100,22.9472293853759770,28.6268196105957030,111,118,91,82,61,15066,2151014637,2152212809,2155057499,2147974317,2148871414,2149477732,2151105618,2147468672,3017,2,15,9469
1350687616,5805,107.0000000000000000,23.3125000000000000,35.2654991149902340,241.5711975097656200,60.5737991333007800,23.2959003448486330,28.3027992248535160,127,122,90,84,60,15035,2152537636,2154036242,2157301449,2148016064,2149482697,2150234422,2151960118,2147549065,434,2,15,59983
1350687767,5810,103.5899963378906200,23.6972007751464840,35.2626991271972660,243.6226043701172000,48.6697006225585940,23.6641101837158200,28.0633697509765620,115,126,92,84,58,15041,2154998409,2157184667,2161322276,2148094336,2150480201,2151592384,2153575917,2147704228,648,2,16,38560
1350687966,5808,98.9899978637695300,24.0722007751464840,35.2538986206054700,244.6932067871093800,34.7025604248046900,24.0969696044921880,27.8434906005859380,103,125,94,83,62,15031,2157859337,2160312146,2164513435,2148188900,2151778285,2153062820,2155039094,2147849197,78,2,15,42652
1350688045,5804,97.4800033569336000,24.3535003662109380,35.2438011169433600,245.1242980957031200,27.3348503112792970,24.3257007598876950,27.7337799072265620,96,124,92,86,59,15037,2158730532,2161264210,2165435328,2148217682,2152220973,2153550427,2155528566,2147894610,2912,2,17,57335
1350688183,5810,95.1600036621093800,24.6047000885009770,35.2571983337402340,245.6690979003906200,19.3092803955078120,24.5751705169677730,27.6114692687988280,88,126,91,85,58,15032,2159830811,2162226102,2166049554,2148257325,2152950564,2154252416,2156032987,2147947949,2961,2,16,2944
1350688262,5806,93.3199996948242200,24.5275001525878900,35.1530990600585940,245.8553009033203000,20.8384895324707030,24.5276107788085940,27.6220607757568360,87,129,93,86,58,15028,2163030107,2166013485,2170520932,2148383241,2154637385,2156332480,2158213138,2148146002,198,2,16,3925
1350688377,5810,91.5500030517578100,24.6919994354248050,35.1500015258789060,244.3777008056640600,16.3719291687011720,24.6665592193603500,27.6314792633056640,83,128,95,85,60,15031,2165849389,2169405074,2174310985,2148495314,2156364608,2158352347,2160173238,2148329252,2161,1,16,53196
1350688491,5820,88.9000015258789000,25.1709003448486330,35.2248992919921900,243.0464935302734400,1.7278699874877930,25.1229095458984380,27.5102691650390620,80,127,94,85,58,15019,2169356635,2173097325,2178060022,2148647680,2158616621,2160814720,2162356763,2148529920,1808,2,16,12462
1350688558,5806,87.0100021362304700,25.2737007141113280,35.1977005004882800,243.2534027099609400,-1.5154390335083008,25.2241497039794920,27.4614696502685550,80,127,91,87,58,15023,2172219291,2176217252,2181248786,2148784795,2160285284,2162659794,2164020717,2148690139,1257,2,16,26785
1350688637,5808,85.3199996948242200,25.1795997619628900,35.1273994445800800,243.1576995849609400,-0.2870768010616303,25.1858005523681640,27.4806804656982420,80,126,93,84,58,15018,2174184557,2178090294,2183122925,2148893485,2161617837,2164088009,2165345563,2148812123,3412,2,16,62596
1350688763,5810,82.7900009155273400,25.1438999176025400,35.0850982666015600,241.9167938232422000,1.1531260013580322,25.1408500671386720,27.5528106689453120,75,127,95,86,59,15020,2174924324,2178470921,2182895378,2148982720,2162893156,2165116909,2165807433,2148866532,80,2,16,57108
1350688818,5807,80.6600036621093800,25.1382999420166000,35.0747985839843750,241.2781066894531200,1.3404790163040161,25.1350002288818360,27.5831794738769530,75,128,95,86,59,15010,2177149824,2180775862,2185143689,2149154532,2164880932,2167104402,2167385526,2149022811,234,1,16,31023
1350688873,5804,78.5299987792968800,25.1931991577148440,35.0646018981933600,240.4230957031250000,-0.9629219770431519,25.2068996429443360,27.5926990509033200,73,127,95,86,57,15013,2176766747,2179972425,2183727542,2149176521,2165301257,2167183908,2167012690,2149000557,401,1,16,60425
1350688928,5804,76.7099990844726600,25.3726005554199220,35.0694007873535160,239.5182952880859400,-5.7671070098876950,25.3569602966308600,27.5738601684570300,72,126,93,85,59,15008,2176730230,2179670912,2183098358,2149246957,2165888100,2167529627,2166975003,2149008484,103,2,16,24277
1350688983,5808,75.2799987792968800,25.5181999206542970,35.0822982788085940,238.8475036621093800,-10.2827396392822270,25.4981307983398440,27.5483798980712900,71,129,95,86,57,15006,2177474477,2180368420,2183605796,2149309348,2167016320,2168528438,2167646317,2149071661,3196,2,16,9985
1350689072,5808,72.9000015258789000,25.7266006469726560,35.1038017272949200,238.1961059570312500,-14.7843103408813480,25.6389904022216800,27.5223903656005860,68,127,93,84,58,14997,2182781266,2186296228,2189879698,2149805129,2171787346,2173353892,2171595556,2149477339,2899,2,16,24575
1350689127,5807,70.6500015258789000,25.7241992950439450,35.0984001159668000,237.8173065185547000,-17.1744499206542970,25.7138309478759770,27.5101394653320300,66,126,95,87,59,14989,2184122944,2187390171,2190613312,2149985152,2173717037,2175023341,2172623972,2149597421,3549,2,16,12300
1350689182,5806,68.3399963378906200,25.7747993469238280,35.0926017761230500,237.4302062988281200,-19.2867603302001950,25.7800102233886720,27.5015201568603500,69,128,93,84,57,14998,2190479030,2194476452,2198104182,2150609526,2179338157,2180804406,2177331419,2150091940,644,2,16,47111
1350689237,5806,66.3399963378906200,25.9155998229980470,35.1090011596679700,236.4481964111328000,-23.3500995635986330,25.9073791503906250,27.4957695007324220,68,127,92,84,57,15003,2194896630,2199642880,2203500534,2151065124,2184110966,2185458422,2180919789,2150465865,1132,2,16,11411
1350689292,5808,64.8300018310546900,26.0461997985839840,35.1343994140625000,235.6304016113281200,-27.4219799041748050,26.0351295471191400,27.4827308654785160,67,123,91,87,54,15009,2196646144,2201335588,2205092004,2151378194,2186645147,2187800585,2182544777,2150669988,866,2,16,26114
1350689382,5807,62.2900009155273440,26.1627006530761720,35.1581993103027340,235.0160980224609400,-31.2800693511962900,26.1562690734863280,27.4631404876709000,64,124,95,86,54,15005,2198561261,2203368740,2207073810,2151890075,2190924288,2191397165,2184776310,2150918217,3106,2,16,36235
1350689437,5808,59.9199981689453100,26.1877994537353500,35.1604995727539060,234.5027008056640600,-32.1281204223632800,26.1829109191894530,27.4760494232177730,62,124,92,84,56,14998,2202012150,2207139355,2210766765,2152618980,2196548955,2196703561,2188529499,2151362944,2759,2,16,54804
1350689492,5807,57.1599998474121100,26.2078990936279300,35.1609992980957000,234.3645935058593800,-32.8134002685546900,26.2044391632080080,27.4737701416015620,60,123,92,85,55,15013,2206408384,2212167305,2216173193,2153763876,2202559478,2202232356,2192320045,2151905334,2524,2,16,2691
1350689547,5807,54.2000007629394500,26.2243003845214840,35.1646995544433600,234.1804962158203000,-33.3566703796386700,26.2215099334716800,27.4754505157470700,61,122,92,84,59,15011,2207821257,2213566802,2217295314,2154514669,2206100937,2205240310,2194001709,2152203318,2204,2,16,2772
1350689602,5811,51.1800003051757800,26.2215003967285160,35.1590003967285160,234.3439941406250000,-32.6631317138671900,26.1997203826904300,27.4766197204589840,61,124,91,85,56,15006,2213515565,2219983204,2224232502,2156122587,2213492973,2212301979,2199115245,2152925339,1880,1,16,63304
1350689657,5808,48.2900009155273440,26.1620998382568360,35.1221008300781250,234.6107025146484400,-31.4622001647949220,26.1619892120361330,27.4792098999023440,60,126,93,84,57,14990,2218445019,2225364608,2229919296,2157880365,2220094829,2218535168,2203505837,2153690642,1628,2,16,10491
1350689714,5807,45.4700012207031250,26.1910991668701170,35.1269989013671900,234.6101989746093800,-32.3270683288574200,26.1891593933105470,27.4687004089355470,59,124,93,85,58,15001,2218746322,2225176438,2229166336,2158846372,2221671387,2219461412,2203682587,2154020406,1612,2,16,21421
1350689769,5808,42.8800010681152340,26.2509002685546880,35.1413002014160160,234.3589935302734400,-34.3724098205566400,26.2534408569335940,27.4550704956054700,59,123,91,85,58,14993,2230611520,2238712987,2244000557,2162817225,2234483712,2232150052,2213393325,2155628278,1697,2,17,32692
1350689824,5806,40.2799987792968750,26.3108005523681640,35.1542015075683600,234.1143035888672000,-36.2270507812500000,26.3117504119873050,27.4433898925781250,59,123,95,85,57,14985,2233549897,2241698176,2246750473,2164748562,2238855213,2236128905,2216100324,2156308187,1707,1,17,19126
1350689879,5807,37.7299995422363300,26.4312992095947270,35.1832008361816400,233.4161071777343800,-40.4938583374023440,26.4459800720214840,27.4227905273437500,59,124,93,87,59,14994,2235656886,2243391131,2248201746,2166798537,2242383542,2239129508,2217931812,2156964480,1405,2,16,55466
1350689934,5812,35.0999984741210940,26.6420001983642580,35.2318992614746100,232.4035949707031200,-46.6992111206054700,26.6414299011230470,27.3930606842041000,56,122,92,86,58,14998,2233491181,2240100763,2244304667,2168266934,2240440420,2236331291,2215188324,2157100525,1207,2,17,16375
1350689989,5813,32.5099983215332000,26.6991004943847660,35.2449989318847660,232.0514068603515600,-48.2886009216308600,26.6915397644042970,27.3897209167480470,55,122,92,84,56,15000,2233737106,2239856118,2243868717,2170241517,2241481014,2236680841,2214817773,2157511478,1091,2,17,8428
1350690046,5809,29.6900005340576170,26.7234001159667970,35.2467002868652340,231.9853973388672000,-49.3180084228515600,26.7240009307861330,27.3800392150878900,55,124,94,86,57,14998,2240093385,2246501321,2250726976,2175095881,2249639186,2244280585,2220223049,2159086491,1225,2,17,13146